Wind_Speed
7 8 9 10 18 22 18 13 19 17 22 18 20 3 10 22 24 27 19 19 13 10 9 7 10 10 9 8 8 10 11 15 18 19 16 16 17 14 12 14 14 14 14 15
10 10 11 15 18 24 8 10 30 25 25 22 20 22 9 22 22 29 22 23 12 10 8 8 9 12 10 9 8 10 12 13 15 16 17 17 16 16 13 14 14 14 14 15
9 8 19 13 14 19 19 13 17 25 21 20 23 23 15 10 17 22 21 22 16 13 20 11 9 12 11 10 10 9 11 13 14 17 18 18 16 15 15 13 14 14 14 14
13 21 11 15 15 17 8 22 26 27 10 18 15 15 26 18 15 15 26 22 28 22 17 14 12 11 12 11 11 11 12 14 16 17 18 18 15 14 15 15 14 14 15 15
15 15 15 15 16 17 18 25 22 17 12 15 19 13 30 25 21 16 26 33 27 19 20 18 15 13 12 12 13 13 14 17 18 18 16 15 16 14 13 12 12 12 13 13
17 11 11 13 18 20 23 22 19 15 12 11 19 20 28 26 19 20 26 24 27 27 23 18 15 15 14 13 13 14 15 19 18 18 16 16 16 14 13 11 10 9 9 10
11 11 12 13 13 16 17 10 8 9 12 12 20 18 12 25 25 15 20 29 30 27 25 17 19 16 16 15 15 14 15 18 19 18 18 17 16 14 13 12 10 9 8 8
4 17 15 12 12 11 15 13 12 18 7 17 13 13 19 23 28 12 21 19 31 30 25 22 21 23 19 17 15 17 17 18 19 19 18 17 16 15 14 13 12 11 10 9
3 9 20 10 13 12 13 17 16 20 7 14 11 8 15 19 21 10 16 17 18 32 29 26 26 21 25 20 18 18 18 19 20 20 19 18 16 15 14 13 12 11 10 10
9 8 13 13 10 13 19 26 16 15 17 14 11 12 21 17 10 20 16 20 21 25 32 29 29 29 26 23 21 19 18 19 21 20 20 20 18 17 15 15 13 12 11 11
11 13 10 10 9 9 19 18 11 16 27 15 11 16 19 18 16 21 23 27 30 33 31 36 33 30 27 25 22 21 19 17 20 21 20 19 19 18 17 17 15 13 12 12
11 12 11 13 12 20 21 21 16 21 19 24 25 13 2 17 21 15 21 28 27 31 33 38 38 35 31 27 26 23 22 20 19 20 20 19 19 18 18 17 16 16 16 15
9 7 6 10 15 17 18 15 19 24 34 18 21 17 11 19 18 23 11 28 32 31 33 40 39 38 34 31 30 27 25 24 21 19 22 21 22 21 20 19 17 17 17 18
10 10 11 14 21 27 24 22 24 20 23 11 12 19 23 20 14 15 15 16 26 38 43 43 42 41 39 34 32 30 29 26 25 23 22 22 22 21 19 18 18 18 18 19
16 15 16 18 26 23 24 28 25 20 27 20 20 13 16 26 11 12 19 3 7 32 42 44 44 41 40 38 35 33 32 31 28 27 26 25 23 22 21 20 19 19 18 18
19 19 20 18 19 27 28 28 26 29 20 30 30 19 14 22 20 16 10 12 3 11 52 40 41 40 40 40 36 35 33 32 31 31 30 29 28 26 25 23 22 21 21 22
22 21 21 19 16 18 23 23 23 27 32 31 16 28 25 25 22 20 16 15 9 7 11 32 42 37 39 36 37 36 38 36 35 35 33 31 29 28 26 25 25 25 25 25
22 20 20 21 21 19 14 25 29 30 31 29 23 32 30 21 30 25 20 17 13 12 6 3 4 6 28 33 36 42 41 40 36 38 36 33 31 30 29 29 28 27 28 30
22 19 19 15 14 14 14 18 24 36 35 34 43 21 27 25 28 30 27 25 19 16 10 9 9 13 16 29 43 41 37 33 40 37 34 34 32 29 29 32 28 31 33 33
19 18 18 14 17 17 22 23 25 25 35 35 37 25 35 31 29 34 26 30 28 20 21 19 14 14 16 9 35 43 42 41 35 37 33 35 39 39 33 33 29 31 32 36
14 16 13 13 16 20 27 17 21 23 23 33 36 31 32 33 34 31 26 26 30 29 28 25 21 17 13 9 5 29 37 41 36 38 43 37 34 35 36 32 29 30 35 35
16 14 9 16 16 18 28 22 26 26 26 32 33 33 30 32 35 32 30 28 28 33 34 27 26 20 20 19 15 11 24 18 32 34 34 32 23 22 22 33 33 29 31 30
15 16 16 18 20 24 19 19 20 22 23 24 26 26 23 39 35 33 31 33 32 27 33 32 29 26 23 21 17 14 18 17 15 16 15 17 19 18 17 20 22 26 23 21
16 16 16 15 16 22 19 21 21 24 24 22 27 31 32 27 31 33 32 32 33 31 33 30 29 28 27 26 25 25 23 18 19 21 23 26 24 23 23 22 23 20 22 23
18 18 17 14 15 20 18 19 18 19 22 23 24 28 30 30 33 36 32 33 32 31 32 29 27 29 28 26 27 26 24 21 23 25 24 22 24 25 26 26 22 22 21 18
19 21 19 16 18 15 19 16 17 19 18 25 22 27 30 31 23 37 32 37 35 33 31 29 30 30 29 30 28 31 29 28 27 24 23 23 27 28 28 28 27 27 24 22
Wind_Direction
214 209 207 200 209 217 205 215 237 231 244 256 251 222 225 185 194 176 201 173 170 175 163 172 161 154 161 164 163 162 161 167 168 172 166 154 148 143 142 136 137 141 138 143
225 227 206 197 221 208 232 250 239 253 247 257 262 258 201 214 221 179 180 197 176 180 170 188 175 163 164 160 168 167 171 170 169 171 170 159 155 157 148 145 141 137 140 144
207 238 231 214 216 212 218 235 271 269 253 267 279 265 267 228 208 211 175 191 194 166 181 204 196 176 168 165 161 168 181 177 174 171 168 159 164 152 148 149 145 139 140 146
215 248 242 228 217 216 201 241 248 262 262 266 289 286 266 235 244 255 196 190 184 199 205 194 202 189 177 168 165 166 178 175 172 174 167 165 164 157 155 158 154 144 143 148
242 254 243 233 221 225 213 240 256 257 255 259 276 294 280 276 270 253 194 184 192 204 195 184 200 187 191 183 173 170 171 176 174 172 169 167 164 166 167 166 164 151 145 150
250 253 247 233 230 233 215 241 248 254 267 281 263 277 279 276 261 254 206 195 197 194 196 189 192 191 186 191 186 174 179 180 178 174 175 172 181 178 176 172 158 161 160 155
259 264 257 248 237 236 238 230 280 259 265 258 256 279 298 277 249 271 218 202 200 198 197 210 225 213 189 190 192 192 188 187 184 181 177 179 185 190 194 197 191 183 175 168
288 295 284 248 227 251 231 192 224 240 213 229 239 282 264 269 259 276 237 236 204 197 196 200 204 198 198 192 193 199 198 195 191 189 185 189 189 189 193 198 200 202 202 200
217 233 267 259 238 228 233 223 198 258 271 242 284 222 275 281 268 271 255 239 226 200 201 206 206 178 221 199 193 199 204 201 198 195 191 194 196 197 200 205 210 211 212 222
234 213 277 273 254 237 222 203 205 236 250 230 221 272 255 252 281 253 241 227 220 208 203 206 211 210 203 203 201 200 207 212 206 201 199 198 198 197 201 208 208 213 217 221
217 203 243 263 273 228 243 235 179 239 237 223 217 187 236 246 233 254 246 237 225 224 227 209 213 215 210 207 204 205 206 210 208 208 205 205 209 208 207 208 206 210 221 231
234 199 231 267 227 250 253 205 193 230 252 252 253 229 295 257 247 247 242 242 233 221 212 215 214 217 212 207 213 207 210 208 209 213 211 209 211 217 217 218 217 217 219 222
249 210 262 263 279 294 275 242 261 228 220 215 260 233 190 266 265 252 248 238 230 213 222 214 212 216 212 211 214 214 212 214 213 213 212 211 212 215 219 220 225 224 229 231
259 238 228 220 243 237 244 240 205 252 246 285 277 281 297 269 262 262 277 207 214 213 196 216 218 208 214 214 214 217 217 217 216 217 219 217 216 217 217 216 220 225 229 233
256 258 250 237 239 244 241 253 220 211 226 246 260 231 234 255 234 242 259 291 198 201 206 198 209 208 216 218 218 219 219 219 221 221 220 221 224 224 224 225 226 226 228 234
256 263 266 263 252 252 244 237 243 257 226 223 213 289 261 238 216 216 233 255 312 218 209 206 211 210 214 218 223 222 226 229 227 229 228 227 228 230 232 234 236 240 242 244
259 262 274 274 261 254 256 252 245 249 233 236 260 229 240 231 216 219 221 241 262 248 192 187 199 211 209 222 223 233 231 230 236 237 237 237 236 239 245 247 249 249 248 251
264 266 274 275 269 261 278 237 226 227 233 240 213 261 263 199 217 222 218 231 220 272 264 177 154 242 220 219 227 228 233 236 234 237 239 244 246 245 247 250 254 257 256 256
262 269 271 269 274 274 256 282 265 230 235 229 256 232 228 218 214 219 218 222 208 204 240 225 231 238 264 236 225 230 231 236 234 239 244 247 247 250 252 253 251 259 263 264
267 266 268 261 245 235 240 250 236 268 244 236 229 228 218 217 219 212 221 221 218 208 212 227 222 237 267 234 217 228 230 235 235 232 237 245 245 236 237 251 258 260 263 259
267 262 271 270 266 254 264 267 265 264 250 242 238 247 231 218 219 222 225 227 218 216 215 221 235 225 241 263 265 226 224 213 216 220 248 235 233 234 247 254 261 268 269 264
261 259 265 289 268 250 258 267 264 256 257 242 240 238 236 224 226 224 219 227 227 219 225 220 235 233 224 222 234 249 201 201 213 230 233 233 247 248 255 260 256 266 264 261
251 255 249 253 240 257 279 272 254 260 261 251 231 220 227 215 222 224 218 223 225 227 227 229 229 231 234 226 236 236 224 231 233 245 252 249 247 242 256 262 250 267 265 267
266 256 263 272 273 269 270 265 267 255 254 247 230 222 237 226 215 221 216 220 224 223 227 229 233 234 232 232 228 233 239 238 236 239 240 241 242 242 245 248 260 267 251 262
234 267 273 281 284 277 264 265 264 258 248 242 234 229 225 221 218 220 219 218 222 223 228 226 221 229 234 237 240 237 236 237 240 239 243 244 249 250 252 252 253 251 240 239
256 263 271 277 280 287 260 261 259 256 242 232 233 228 225 237 238 210 212 219 216 223 221 219 224 226 230 230 227 233 229 232 232 233 238 246 252 253 252 255 255 250 257 269
Height
5867 5869 5871 5877 5882 5881 5884 5880 5878 5876 5879 5880 5880 5877 5876 5880 5884 5888 5893 5891 5898 5899 5900 5901 5901 5902 5903 5906 5908 5910 5912 5913 5915 5916 5918 5919 5920 5923 5923 5925 5926 5927 5929 5930
5866 5867 5870 5874 5875 5878 5881 5880 5877 5878 5878 5878 5879 5876 5878 5880 5882 5884 5889 5895 5895 5898 5901 5902 5902 5903 5904 5907 5909 5910 5913 5915 5916 5918 5919 5921 5923 5923 5925 5927 5928 5929 5930 5932
5865 5868 5864 5869 5871 5875 5878 5882 5877 5872 5875 5878 5877 5878 5877 5878 5881 5884 5887 5891 5892 5896 5901 5902 5903 5903 5905 5907 5909 5911 5914 5916 5917 5919 5920 5923 5924 5926 5928 5929 5930 5931 5932 5933
5863 5861 5864 5866 5869 5872 5879 5875 5875 5873 5878 5876 5876 5881 5876 5877 5879 5881 5882 5886 5893 5898 5899 5902 5903 5904 5905 5907 5909 5912 5915 5916 5918 5920 5921 5924 5927 5929 5930 5931 5932 5932 5934 5935
5861 5859 5862 5864 5866 5869 5874 5871 5872 5872 5875 5877 5878 5881 5872 5875 5876 5877 5880 5885 5892 5896 5898 5900 5903 5905 5905 5907 5909 5913 5915 5917 5919 5921 5924 5927 5928 5929 5931 5933 5934 5934 5936 5937
5856 5858 5860 5861 5862 5864 5866 5867 5869 5870 5874 5878 5880 5878 5872 5873 5874 5875 5878 5881 5886 5892 5896 5899 5901 5905 5906 5907 5909 5912 5915 5917 5920 5922 5925 5928 5929 5931 5932 5934 5936 5937 5938 5939
5855 5855 5856 5858 5860 5861 5864 5869 5873 5874 5878 5881 5875 5877 5874 5870 5874 5875 5877 5880 5885 5889 5895 5898 5902 5906 5907 5906 5909 5911 5914 5917 5919 5922 5925 5927 5930 5932 5934 5936 5937 5938 5940 5941
5860 5856 5854 5856 5859 5862 5861 5869 5873 5870 5872 5872 5871 5875 5873 5869 5871 5874 5874 5877 5883 5887 5893 5894 5899 5903 5904 5906 5908 5910 5913 5916 5918 5921 5924 5927 5931 5933 5935 5937 5938 5939 5940 5942
5860 5859 5852 5854 5856 5859 5862 5863 5871 5868 5865 5868 5869 5869 5870 5868 5871 5871 5873 5876 5880 5886 5890 5893 5897 5901 5904 5904 5906 5909 5912 5915 5918 5920 5923 5926 5929 5932 5935 5937 5938 5939 5941 5942
5853 5854 5852 5851 5853 5856 5857 5854 5864 5870 5868 5868 5863 5869 5864 5868 5867 5869 5871 5872 5877 5880 5886 5890 5893 5897 5899 5901 5903 5907 5911 5914 5916 5919 5922 5924 5927 5930 5933 5935 5937 5939 5940 5942
5846 5850 5850 5851 5851 5854 5856 5856 5858 5864 5860 5861 5861 5860 5861 5863 5865 5865 5867 5866 5870 5874 5878 5884 5889 5892 5896 5898 5900 5903 5908 5912 5914 5917 5920 5923 5926 5928 5931 5933 5935 5937 5938 5939
5842 5844 5851 5850 5852 5848 5850 5853 5855 5865 5858 5860 5855 5857 5856 5858 5859 5861 5861 5862 5865 5869 5873 5877 5883 5888 5891 5895 5898 5901 5905 5909 5913 5915 5918 5920 5924 5926 5928 5930 5933 5935 5936 5937
5838 5841 5847 5849 5850 5848 5847 5851 5854 5853 5853 5852 5854 5845 5848 5854 5854 5854 5857 5855 5859 5866 5868 5871 5877 5882 5886 5891 5895 5898 5902 5905 5909 5912 5915 5918 5920 5922 5925 5927 5930 5932 5934 5935
5835 5837 5839 5844 5841 5841 5842 5843 5844 5849 5846 5851 5851 5849 5846 5850 5850 5851 5852 5849 5850 5853 5862 5864 5874 5877 5882 5887 5890 5894 5898 5902 5905 5908 5912 5914 5916 5919 5922 5925 5927 5929 5930 5932
5831 5831 5832 5834 5833 5835 5836 5836 5840 5841 5850 5849 5849 5849 5850 5844 5847 5847 5850 5846 5845 5848 5854 5861 5865 5872 5877 5882 5885 5889 5894 5898 5901 5904 5907 5910 5914 5916 5918 5920 5923 5925 5927 5928
5826 5826 5825 5827 5828 5828 5830 5834 5837 5837 5838 5842 5844 5844 5832 5842 5841 5843 5846 5846 5844 5847 5848 5855 5861 5866 5871 5875 5879 5884 5889 5893 5897 5901 5903 5906 5909 5912 5915 5917 5919 5921 5922 5924
5820 5820 5819 5820 5821 5822 5822 5825 5829 5831 5832 5835 5832 5835 5837 5836 5839 5839 5841 5843 5843 5845 5845 5846 5853 5858 5866 5871 5875 5879 5883 5887 5891 5895 5899 5903 5906 5909 5912 5914 5915 5917 5918 5920
5813 5814 5814 5814 5814 5816 5818 5814 5816 5816 5821 5827 5823 5825 5823 5827 5834 5836 5837 5840 5841 5842 5843 5844 5851 5854 5860 5863 5868 5873 5878 5881 5887 5890 5895 5899 5902 5904 5906 5907 5909 5911 5912 5912
5808 5809 5808 5809 5813 5812 5814 5811 5810 5811 5815 5818 5809 5814 5820 5826 5828 5831 5834 5837 5840 5841 5844 5846 5851 5854 5855 5857 5861 5866 5871 5876 5878 5883 5889 5892 5894 5896 5899 5901 5901 5903 5905 5906
5803 5803 5803 5804 5804 5804 5804 5801 5800 5801 5803 5810 5811 5798 5814 5817 5820 5822 5828 5832 5836 5839 5842 5847 5850 5851 5852 5851 5855 5858 5862 5869 5872 5876 5879 5883 5885 5887 5888 5891 5892 5895 5896 5898
5798 5798 5798 5802 5800 5800 5794 5796 5794 5797 5800 5796 5799 5801 5803 5806 5813 5817 5822 5827 5832 5835 5839 5841 5845 5847 5848 5846 5847 5846 5853 5860 5866 5869 5872 5874 5876 5879 5882 5884 5886 5887 5887 5888
5793 5793 5798 5796 5794 5795 5790 5791 5790 5788 5787 5787 5791 5793 5797 5802 5804 5811 5817 5822 5825 5828 5832 5835 5840 5841 5843 5844 5847 5846 5848 5849 5855 5860 5864 5865 5867 5870 5873 5876 5878 5877 5876 5876
5788 5788 5788 5789 5790 5785 5784 5782 5782 5777 5782 5782 5784 5792 5782 5792 5797 5804 5811 5814 5819 5824 5827 5829 5833 5836 5836 5839 5842 5843 5846 5848 5852 5854 5856 5860 5862 5863 5866 5867 5868 5869 5868 5868
5782 5783 5782 5782 5781 5778 5778 5776 5775 5775 5776 5777 5778 5779 5777 5788 5786 5797 5804 5809 5814 5818 5819 5823 5827 5830 5833 5835 5838 5841 5842 5844 5848 5850 5853 5855 5856 5857 5859 5860 5861 5861 5861 5861
5781 5777 5777 5776 5774 5772 5771 5770 5769 5769 5771 5773 5774 5774 5775 5777 5782 5791 5798 5804 5808 5812 5814 5818 5821 5825 5828 5830 5831 5834 5837 5840 5844 5846 5848 5848 5851 5853 5854 5855 5855 5854 5854 5854
5771 5771 5772 5771 5769 5768 5765 5765 5765 5764 5765 5766 5769 5770 5772 5773 5777 5784 5790 5795 5800 5805 5808 5813 5816 5819 5822 5825 5825 5829 5833 5836 5839 5840 5842 5843 5844 5846 5848 5850 5849 5847 5848 5848